Weather Roundup
Issued by NWS Springfield, MO

Home | Current Version | Previous Version | Text Only | Print | Product List | Glossary On
Versions: 1 2 3 4 5 6 7 8 9 10 11 12 13 14 15 16 17 18 19 20 21 22 23 24 25 26 27 28 29 30 31 32 33 34 35 36 37 38 39 40 41 42 43 44 45 46 47 48 49 50
000
NZUS99 KSGF 291407
HRRSGF

HOURLY WEATHER
NATIONAL WEATHER SERVICE SPRINGFIELD MO
900 AM CDT MON MAY 29 2017

......SGF CWA......

CITY           SKY/WX    TMP DP  RH WIND       PRES   REMARKS
SPRINGFIELD    SUNNY     70  57  63 W9        30.00S
JOPLIN         SUNNY     73  57  57 SW13      30.02R
WEST PLAINS    SUNNY     69  58  67 W7        30.02R
ROLLA          SUNNY     66  58  75 SW6       29.96S
OSAGE BEACH    SUNNY     67  58  72 W6        29.98S
BRANSON        PTSUNNY   68  57  68 W7        30.04R

......SURROUNDING SGF CWA......

CITY           SKY/WX    TMP DP  RH WIND       PRES   REMARKS
CHANUTE        SUNNY     72  50  45 W10       30.01S
PARSONS        SUNNY     69  55  60 NW12      30.03R
COFFEYVILLE    SUNNY     71  60  68 VRB3      30.01R
EMPORIA        SUNNY     68  53  58 NW8       30.02R
GROVE OK       SUNNY     70  63  78 SW3       30.04R
ROGERS AR      SUNNY     69  60  73 SW8       30.06R
SILOAM SPRINGS SUNNY     70  57  64 W8        30.06R
HARRISON AR    SUNNY     71  58  63 W7        30.04R
NEAR YELLVILLE SUNNY     66  55  68 SW3       30.01R

......KANSAS AND MISSOURI......

CITY           SKY/WX    TMP DP  RH WIND       PRES   REMARKS
KANSAS CTY INT MOSUNNY   66  53  63 NW10      29.96R
DOWNTOWN KC    SUNNY     69  55  60 W9        29.95R
COLUMBIA       SUNNY     71  56  58 SW7       29.94S
SEDALIA        CLOUDY    68  59  73 SW10      29.95S
ST JOSEPH      SUNNY     68  51  54 NW9       29.96R
ST LOUIS       MOSUNNY   72  56  57 W8        29.94R
SPIRIT OF STL  MOSUNNY   70  57  63 SW5       29.93S
KIRKSVILLE     SUNNY     68  49  50 VRB6      29.94R
WICHITA        MOSUNNY   70  52  52 NW8       30.04S
TOPEKA         SUNNY     68  54  60 NW9       29.99R
OLATHE         MOSUNNY   67  54  63 NW12      29.96S

......TENNESSEE......

CITY           SKY/WX    TMP DP  RH WIND       PRES   REMARKS
MEMPHIS        CLOUDY    76  69  79 W5        29.99R
NASHVILLE      CLOUDY    69  65  86 CALM      30.00R

......ARKANSAS.......

CITY           SKY/WX    TMP DP  RH WIND       PRES   REMARKS
FAYETTEVILLE   MOSUNNY   67  62  84 S7        30.06R
FT SMITH       SUNNY     71  60  68 CALM      30.04R
LITTLE ROCK    PTSUNNY   73  63  70 N6        30.02R

......OKLAHOMA.......

CITY           SKY/WX    TMP DP  RH WIND       PRES   REMARKS
TULSA          PTSUNNY   75  61  61 W8        30.00R
PONCA CITY     SUNNY     69  53  56 NW8       30.05R
MCALESTER      MOSUNNY   72  63  73 CALM      30.05R
OKLAHOMA CITY  PTSUNNY   72  49  44 W7        30.06R

......IOWA............

CITY           SKY/WX    TMP DP  RH WIND       PRES   REMARKS
DES MOINES     MOSUNNY   68  46  45 NW13      29.92S
QUAD CITIES    CLOUDY    66  47  50 W8        29.87R

......ILLINOIS........

CITY           SKY/WX    TMP DP  RH WIND       PRES   REMARKS
QUINCY         SUNNY     70  52  52 SW9       29.90R
CHICAGO        MOSUNNY   70  46  42 W9        29.80R



USA.gov is the U.S. government's official web portal to all federal, state and local government web resources and services.